Погода в Беляковском

Россия / Свердловская область     56°59′22″N   64°11′32″E
темп.,
°C
ветер,
м/с
пор.,
м/с
влажн.,
%
обл.,
%
осадки,
мм/ч
давл.,
гПа
погр.,
м
21 апреля, ср
ср2123:00+3зсз38640 0.0 1027138
02:00+2зсз310744 0.0 1028189
05:000сз25851 0.0 102990
08:00+5ссз24685 0.0 1031282
11:00+10с345315 0.0 10311265
14:00+12с334027 0.0 10311781
17:00+12всв334459 0.0 10321258
20:00+7в25645 0.0 103491
22 апреля, чт
чт2223:00+5вюв26735 0.0 1035128
02:00+3ююв25775 0.0 1036109
05:00+3юв26805 0.0 1036118
08:00+7ююв37605 0.0 1037340
11:00+13ююв564393 0.0 10361300
14:00+15ю573466 0.0 10351988
17:00+15ююз5734100 0.0 10342188
20:00+12ю3846100 0.0 1034259
23 апреля, пт
пт2323:00+8ююв3866100 0.0 1035177
02:00+8ююв41065100 0.0 1034347
05:00+7ююв3969100 0.0 1034257
08:00+9ю41060100 0.0 1034428
11:00+11ююз4752100 0.0 1033794
14:00+14ю5942100 0.0 10322153
17:00+12ююз375890 0.2 10321373
20:00+10ю3973100 0.3 1032501
24 апреля, сб
сб2423:00+10ююв3965100 0.5 1031368
02:00+8ююв3959100 0.0 1030259
05:00+7ююв3861100 0.0 1029249
08:00+8ююв3760100 0.0 1029395
11:00+9юв2670100 0.6 1028821
14:00+10ююв5752100 0.0 10271506
17:00+11юв4849100 0.0 10251656
20:00+10ююв5945100 0.0 1024762
25 апреля, вс
вс2523:00+8юв41050100 0.0 1023471
02:00+6вюв3958100 0.0 1021377
05:00+6вюв3959100 0.0 1020361
08:00+7вюв4754100 0.0 1018440
11:00+11вюв4648100 0.0 10161181
14:00+15вюв4631100 0.0 10141936
17:00+15юв4629100 0.0 10122378
20:00+10ююз3765100 0.0 1013302